COSMOS 2485 (747)

Last updated on Oct. 25, 2020, 5:57 a.m. UTC

1 39155U 13019A   20298.21461543  .00000051  00000-0  00000+0 0  9999
2 39155  64.7056 143.0986 0019087 228.7645 307.5028  2.13102012 58340
UTC
Height (km)
Latitude
Longitude
Inclination
Orbital Period
UTC large
Height (km)
Speed (km/s)
/
Latitude / Longitude
Inclination (degrees)
Orbital Period (minutes)
Azimuth
Elevation
Range (km)
Doppler Factor
iOS Compass Heading
iOS Angle

Next 30 passes for location: Hong Kong

Rise time Rise Azimuth (degrees) Set time Set Azimuth (degrees) Duration Max altitude (degrees)

No matching passes for this satellites